• In Belarus
  • List of Countries
  • For 7 days
  • Water Temperature
  • Satellite Maps
  • Weather Map
  • Weather Widgets
  • user-avatar
    Login

    Hourly Weather Wiktoria

    Today, 20 September, Thursday

    Time Temperature Precipitation Wind Pressure Humidity
    00:00 +5°C° 0 mm 1 mps 752 mmHg 87%
    01:00 +5°C° 0 mm 1 mps 752 mmHg 87%
    02:00 +4°C° 0 mm 1 mps 752 mmHg 88%
    03:00 +4°C° 0 mm 1 mps 752 mmHg 88%
    04:00 +3°C° 0 mm 1 mps 752 mmHg 89%
    05:00 +4°C° 0 mm 1 mps 753 mmHg 88%
    06:00 +4°C° 0 mm 1 mps 753 mmHg 87%
    07:00 +4°C° 0 mm 1 mps 753 mmHg 86%
    08:00 +7°C° 0 mm 1 mps 754 mmHg 78%
    09:00 +10°C° 0 mm 1 mps 754 mmHg 70%
    10:00 +13°C° 0 mm 1 mps 754 mmHg 61%
    11:00 +14°C° 0 mm 2 mps 754 mmHg 59%
    12:00 +15°C° 0 mm 2 mps 754 mmHg 57%
    13:00 +16°C° 0 mm 3 mps 754 mmHg 54%
    14:00 +16°C° 0 mm 3 mps 754 mmHg 56%
    15:00 +16°C° 0 mm 3 mps 754 mmHg 58%
    16:00 +16°C° 0 mm 3 mps 754 mmHg 59%
    17:00 +14°C° 0 mm 2 mps 754 mmHg 66%
    18:00 +12°C° 0 mm 2 mps 755 mmHg 74%
    19:00 +10°C° 0 mm 1 mps 755 mmHg 81%
    20:00 +9°C° 0 mm 1 mps 756 mmHg 83%
    21:00 +9°C° 0 mm 1 mps 756 mmHg 86%
    22:00 +8°C° 0 mm 1 mps 757 mmHg 88%
    23:00 +7°C° 0 mm 1 mps 757 mmHg 89%

    Tomorrow, 21 September, Friday

    Time Temperature Precipitation Wind Pressure Humidity
    00:00 +7°C° 0 mm 1 mps 757 mmHg 91%
    01:00 +7°C° 0 mm 1 mps 757 mmHg 92%
    02:00 +6°C° 0 mm 1 mps 757 mmHg 92%
    03:00 +6°C° 0 mm 1 mps 757 mmHg 93%
    04:00 +5°C° 0 mm 0 mps 758 mmHg 93%
    05:00 +5°C° 0 mm 0 mps 758 mmHg 93%
    06:00 +5°C° 0 mm 0 mps 758 mmHg 93%
    07:00 +6°C° 0 mm 0 mps 759 mmHg 93%
    08:00 +9°C° 0 mm 1 mps 759 mmHg 87%
    09:00 +12°C° 0 mm 1 mps 759 mmHg 80%
    10:00 +14°C° 0 mm 2 mps 759 mmHg 73%
    11:00 +15°C° 0 mm 2 mps 758 mmHg 71%
    12:00 +16°C° 0 mm 2 mps 758 mmHg 69%
    13:00 +17°C° 0 mm 2 mps 757 mmHg 66%
    14:00 +17°C° 0 mm 2 mps 757 mmHg 67%
    15:00 +17°C° 0 mm 2 mps 757 mmHg 68%
    16:00 +17°C° 0 mm 2 mps 757 mmHg 69%
    17:00 +15°C° 0 mm 2 mps 757 mmHg 75%
    18:00 +13°C° 0 mm 2 mps 757 mmHg 81%
    19:00 +12°C° 0 mm 1 mps 758 mmHg 87%
    20:00 +11°C° 0 mm 1 mps 758 mmHg 88%
    21:00 +10°C° 0 mm 1 mps 758 mmHg 89%
    22:00 +9°C° 0 mm 1 mps 759 mmHg 89%
    23:00 +9°C° 0 mm 1 mps 759 mmHg 90%

    Day after tomorrow, 22 September, Saturday

    Time Temperature Precipitation Wind Pressure Humidity
    00:00 +9°C° 0 mm 1 mps 759 mmHg 90%
    01:00 +7°C° 0 mm 0 mps 759 mmHg 91%
    02:00 +7°C° 0 mm 0 mps 758 mmHg 91%
    03:00 +7°C° 0 mm 0 mps 758 mmHg 92%
    04:00 +6°C° 0 mm 0 mps 758 mmHg 92%
    05:00 +8°C° 0 mm 1 mps 758 mmHg 92%
    06:00 +8°C° 0 mm 1 mps 759 mmHg 93%
    07:00 +8°C° 0 mm 1 mps 759 mmHg 93%
    08:00 +11°C° 0 mm 1 mps 759 mmHg 86%
    09:00 +13°C° 0 mm 2 mps 759 mmHg 79%
    10:00 +16°C° 0 mm 2 mps 758 mmHg 73%
    11:00 +17°C° 0 mm 2 mps 758 mmHg 70%
    12:00 +18°C° 0 mm 3 mps 758 mmHg 67%
    13:00 +20°C° 0 mm 3 mps 757 mmHg 63%
    14:00 +20°C° 0 mm 3 mps 757 mmHg 64%
    15:00 +20°C° 0 mm 3 mps 756 mmHg 65%
    16:00 +20°C° 0 mm 3 mps 756 mmHg 66%
    17:00 +18°C° 0 mm 2 mps 756 mmHg 72%
    18:00 +16°C° 0 mm 2 mps 756 mmHg 78%
    19:00 +13°C° 0 mm 1 mps 757 mmHg 85%
    20:00 +13°C° 0 mm 2 mps 757 mmHg 87%
    21:00 +12°C° 0 mm 2 mps 758 mmHg 88%
    22:00 +10°C° 0 mm 2 mps 758 mmHg 90%
    23:00 +10°C° 0 mm 2 mps 758 mmHg 91%

    23 September, Sunday

    Time Temperature Precipitation Wind Pressure Humidity
    00:00 +9°C° 0 mm 2 mps 758 mmHg 91%
    01:00 +8°C° 0 mm 2 mps 758 mmHg 92%
    02:00 +8°C° 0 mm 2 mps 758 mmHg 93%
    03:00 +8°C° 0 mm 2 mps 758 mmHg 94%
    04:00 +8°C° 0 mm 3 mps 758 mmHg 95%
    05:00 +8°C° 0 mm 3 mps 758 mmHg 94%
    06:00 +8°C° 0 mm 3 mps 759 mmHg 94%
    07:00 +7°C° 0 mm 4 mps 759 mmHg 93%
    08:00 +10°C° 0 mm 4 mps 759 mmHg 83%
    09:00 +10°C° 0 mm 5 mps 760 mmHg 74%
    10:00 +13°C° 0 mm 6 mps 760 mmHg 64%
    11:00 +13°C° 0 mm 6 mps 759 mmHg 61%
    12:00 +14°C° 0 mm 6 mps 759 mmHg 58%
    13:00 +15°C° 0 mm 6 mps 759 mmHg 54%
    14:00 +14°C° 0 mm 6 mps 758 mmHg 55%
    15:00 +14°C° 0 mm 6 mps 758 mmHg 56%
    16:00 +14°C° 0 mm 7 mps 758 mmHg 56%
    17:00 +11°C° 0 mm 6 mps 758 mmHg 57%
    18:00 +10°C° 0 mm 6 mps 759 mmHg 57%
    19:00 +8°C° 0 mm 6 mps 759 mmHg 57%
    20:00 +7°C° 0 mm 6 mps 760 mmHg 61%
    21:00 +6°C° 0 mm 5 mps 760 mmHg 65%
    22:00 +5°C° 0 mm 5 mps 760 mmHg 69%
    23:00 +5°C° 0 mm 4 mps 760 mmHg 74%

    24 September, Monday

    Time Temperature Precipitation Wind Pressure Humidity
    00:00 +4°C° 0 mm 4 mps 760 mmHg 79%
    01:00 +3°C° 0 mm 3 mps 760 mmHg 84%
    02:00 +2°C° 0 mm 3 mps 759 mmHg 87%
    03:00 +2°C° 0 mm 3 mps 759 mmHg 89%
    04:00 +1°C° 0 mm 3 mps 759 mmHg 92%
    05:00 +1°C° 0 mm 3 mps 759 mmHg 90%
    06:00 +3°C° 0 mm 2 mps 760 mmHg 88%
    07:00 +3°C° 0 mm 2 mps 760 mmHg 86%
    08:00 +5°C° 0 mm 2 mps 760 mmHg 77%
    09:00 +8°C° 0 mm 2 mps 760 mmHg 67%
    10:00 +12°C° 0 mm 2 mps 760 mmHg 58%
    11:00 +13°C° 0 mm 2 mps 759 mmHg 56%
    12:00 +14°C° 0 mm 2 mps 759 mmHg 53%
    13:00 +15°C° 0 mm 2 mps 758 mmHg 51%
    14:00 +15°C° 0 mm 2 mps 758 mmHg 52%
    15:00 +14°C° 0 mm 3 mps 757 mmHg 53%
    16:00 +14°C° 0 mm 3 mps 757 mmHg 54%
    17:00 +12°C° 0 mm 3 mps 757 mmHg 59%
    18:00 +10°C° 0 mm 4 mps 757 mmHg 63%
    19:00 +7°C° 0 mm 4 mps 758 mmHg 68%
    20:00 +6°C° 0 mm 4 mps 758 mmHg 68%
    21:00 +6°C° 0 mm 4 mps 758 mmHg 69%
    22:00 +5°C° 0 mm 4 mps 758 mmHg 69%
    23:00 +5°C° 0 mm 4 mps 758 mmHg 71%

    25 September, Tuesday

    Time Temperature Precipitation Wind Pressure Humidity
    00:00 +4°C° 0 mm 4 mps 758 mmHg 73%
    01:00 +4°C° 0 mm 3 mps 758 mmHg 75%
    02:00 +3°C° 0 mm 3 mps 757 mmHg 78%
    03:00 +2°C° 0 mm 3 mps 757 mmHg 82%
    04:00 +2°C° 0 mm 3 mps 757 mmHg 85%
    05:00 +2°C° 0 mm 3 mps 757 mmHg 84%
    06:00 +3°C° 0 mm 3 mps 757 mmHg 83%
    07:00 +3°C° 0 mm 3 mps 757 mmHg 82%
    08:00 +5°C° 0 mm 3 mps 757 mmHg 75%
    09:00 +9°C° 0 mm 3 mps 757 mmHg 68%
    10:00 +11°C° 0 mm 3 mps 757 mmHg 60%
    11:00 +13°C° 0 mm 3 mps 756 mmHg 58%
    12:00 +14°C° 0 mm 3 mps 756 mmHg 55%
    13:00 +16°C° 0 mm 2 mps 755 mmHg 52%
    14:00 +16°C° 0 mm 3 mps 755 mmHg 53%
    15:00 +16°C° 0 mm 3 mps 754 mmHg 53%
    16:00 +16°C° 0 mm 3 mps 754 mmHg 54%
    17:00 +13°C° 0 mm 3 mps 754 mmHg 59%
    18:00 +11°C° 0 mm 3 mps 755 mmHg 64%
    19:00 +8°C° 0 mm 4 mps 755 mmHg 69%
    20:00 +8°C° 0 mm 3 mps 755 mmHg 72%
    21:00 +7°C° 0 mm 3 mps 756 mmHg 75%
    22:00 +4°C° 0 mm 3 mps 756 mmHg 78%
    23:00 +4°C° 0 mm 3 mps 756 mmHg 82%
    Show more